Time,TemperatureF,DewpointF,PressureIn,WindDirection,WindDirectionDegrees,WindSpeedMPH,WindSpeedGustMPH,Humidity,HourlyPrecipIn,Conditions,Clouds,dailyrainin,SoftwareType,DateUTC
2013-02-22 00:00:00,21.1,18.1,30.42,South,179,0.0,0.0,88,0.00,,,0.00,VWS V14.01,2013-02-22 05:00:00,
2013-02-22 00:05:00,21.3,18.3,30.41,South,179,0.0,0.0,88,0.00,,,0.00,VWS V14.01,2013-02-22 05:05:00,
2013-02-22 00:10:00,21.3,18.0,30.42,North,355,0.0,2.0,87,0.00,,,0.00,VWS V14.01,2013-02-22 05:10:00,
2013-02-22 00:15:00,21.2,17.9,30.42,North,355,0.0,2.0,87,0.00,,,0.00,VWS V14.01,2013-02-22 05:15:00,
2013-02-22 00:20:00,21.1,17.8,30.42,North,355,0.0,2.0,87,0.00,,,0.00,VWS V14.01,2013-02-22 05:20:00,
2013-02-22 00:25:00,21.2,17.9,30.42,North,355,0.0,0.0,87,0.00,,,0.00,VWS V14.01,2013-02-22 05:25:00,
2013-02-22 00:30:00,21.2,17.9,30.42,North,355,0.0,0.0,87,0.00,,,0.00,VWS V14.01,2013-02-22 05:30:00,
2013-02-22 00:35:00,21.0,18.0,30.42,North,355,0.0,0.0,88,0.00,,,0.00,VWS V14.01,2013-02-22 05:35:00,
2013-02-22 00:40:00,20.9,17.9,30.42,East,91,1.0,2.0,88,0.00,,,0.00,VWS V14.01,2013-02-22 05:40:00,
2013-02-22 00:45:00,20.9,17.9,30.42,East,91,0.0,0.0,88,0.00,,,0.00,VWS V14.01,2013-02-22 05:45:00,
2013-02-22 00:50:00,20.9,17.9,30.42,East,96,0.0,2.0,88,0.00,,,0.00,VWS V14.01,2013-02-22 05:50:00,
2013-02-22 00:55:00,20.9,17.9,30.43,SE,134,2.0,4.0,88,0.00,,,0.00,VWS V14.01,2013-02-22 05:55:00,
2013-02-22 01:00:00,21.0,18.0,30.43,ENE,57,1.0,4.0,88,0.00,,,0.00,VWS V14.01,2013-02-22 06:00:00,
2013-02-22 01:05:00,21.0,18.0,30.42,SSE,148,0.0,0.0,88,0.00,,,0.00,VWS V14.01,2013-02-22 06:05:00,
2013-02-22 01:10:00,21.0,18.0,30.43,NE,42,0.0,2.0,88,0.00,,,0.00,VWS V14.01,2013-02-22 06:10:00,
2013-02-22 01:15:00,21.1,18.1,30.43,NE,55,0.0,2.0,88,0.00,,,0.00,VWS V14.01,2013-02-22 06:15:00,
2013-02-22 01:20:00,21.0,18.0,30.43,ENE,57,1.0,4.0,88,0.00,,,0.00,VWS V14.01,2013-02-22 06:20:00,
2013-02-22 01:25:00,21.0,18.0,30.43,NE,53,0.0,0.0,88,0.00,,,0.00,VWS V14.01,2013-02-22 06:25:00,
2013-02-22 01:30:00,20.9,17.9,30.42,ENE,59,0.0,2.0,88,0.00,,,0.00,VWS V14.01,2013-02-22 06:30:00,
2013-02-22 01:35:00,20.8,18.1,30.42,ENE,65,0.0,0.0,89,0.00,,,0.00,VWS V14.01,2013-02-22 06:35:00,
2013-02-22 01:40:00,20.8,18.1,30.42,ENE,71,1.0,3.0,89,0.00,,,0.00,VWS V14.01,2013-02-22 06:40:00,
2013-02-22 01:45:00,20.7,18.0,30.42,ESE,104,0.0,2.0,89,0.00,,,0.00,VWS V14.01,2013-02-22 06:45:00,
2013-02-22 01:50:00,20.7,18.0,30.41,ESE,104,1.0,4.0,89,0.00,,,0.00,VWS V14.01,2013-02-22 06:50:00,
2013-02-22 01:55:00,20.8,18.1,30.41,ESE,107,0.0,0.0,89,0.00,,,0.00,VWS V14.01,2013-02-22 06:55:00,
2013-02-22 02:00:00,20.9,18.2,30.42,NNE,21,1.0,2.0,89,0.00,,,0.00,VWS V14.01,2013-02-22 07:00:00,
2013-02-22 02:05:00,21.0,18.3,30.41,ENE,73,0.0,1.0,89,0.00,,,0.00,VWS V14.01,2013-02-22 07:05:00,
2013-02-22 02:10:00,21.0,18.3,30.41,East,92,1.0,4.0,89,0.00,,,0.00,VWS V14.01,2013-02-22 07:10:00,
2013-02-22 02:15:00,21.1,18.4,30.41,NE,54,2.0,2.0,89,0.00,,,0.00,VWS V14.01,2013-02-22 07:15:00,
2013-02-22 02:20:00,21.1,18.1,30.41,NE,36,0.0,3.0,88,0.00,,,0.00,VWS V14.01,2013-02-22 07:20:00,
2013-02-22 02:25:00,21.1,18.1,30.41,NE,54,0.0,0.0,88,0.00,,,0.00,VWS V14.01,2013-02-22 07:25:00,
2013-02-22 02:30:00,21.1,18.1,30.41,East,80,0.0,4.0,88,0.00,,,0.00,VWS V14.01,2013-02-22 07:30:00,
2013-02-22 02:35:00,21.1,18.1,30.41,NE,39,3.0,3.0,88,0.00,,,0.00,VWS V14.01,2013-02-22 07:35:00,
2013-02-22 02:40:00,21.1,18.1,30.41,NE,39,0.0,3.0,88,0.00,,,0.00,VWS V14.01,2013-02-22 07:40:00,
2013-02-22 02:45:00,21.1,18.1,30.41,NE,39,0.0,0.0,88,0.00,,,0.00,VWS V14.01,2013-02-22 07:45:00,
2013-02-22 02:50:00,21.1,18.1,30.41,NE,39,0.0,2.0,88,0.00,,,0.00,VWS V14.01,2013-02-22 07:50:00,
2013-02-22 02:55:00,21.1,18.1,30.41,NE,39,0.0,0.0,88,0.00,,,0.00,VWS V14.01,2013-02-22 07:55:00,
2013-02-22 03:00:00,21.1,18.1,30.41,NE,39,0.0,1.0,88,0.00,,,0.00,VWS V14.01,2013-02-22 08:00:00,
2013-02-22 03:05:00,21.1,18.1,30.41,NE,39,0.0,0.0,88,0.00,,,0.00,VWS V14.01,2013-02-22 08:05:00,
2013-02-22 03:10:00,21.1,18.4,30.41,NE,39,0.0,0.0,89,0.00,,,0.00,VWS V14.01,2013-02-22 08:10:00,
2013-02-22 03:15:00,21.1,18.4,30.41,NE,39,0.0,0.0,89,0.00,,,0.00,VWS V14.01,2013-02-22 08:15:00,
2013-02-22 03:20:00,21.0,18.3,30.41,NE,39,0.0,0.0,89,0.00,,,0.00,VWS V14.01,2013-02-22 08:20:00,
2013-02-22 03:25:00,21.0,18.3,30.41,NE,39,0.0,0.0,89,0.00,,,0.00,VWS V14.01,2013-02-22 08:25:00,
2013-02-22 03:30:00,20.9,18.2,30.41,NE,39,0.0,0.0,89,0.00,,,0.00,VWS V14.01,2013-02-22 08:30:00,
2013-02-22 03:35:00,20.9,18.2,30.41,NE,39,0.0,0.0,89,0.00,,,0.00,VWS V14.01,2013-02-22 08:35:00,
2013-02-22 03:40:00,20.9,18.2,30.41,NE,39,0.0,0.0,89,0.00,,,0.00,VWS V14.01,2013-02-22 08:40:00,
2013-02-22 03:45:00,20.9,18.2,30.41,NE,39,0.0,0.0,89,0.00,,,0.00,VWS V14.01,2013-02-22 08:45:00,
2013-02-22 03:50:00,20.9,18.2,30.41,NE,39,0.0,0.0,89,0.00,,,0.00,VWS V14.01,2013-02-22 08:50:00,
2013-02-22 03:55:00,20.9,18.2,30.41,NE,39,0.0,0.0,89,0.00,,,0.00,VWS V14.01,2013-02-22 08:55:00,
2013-02-22 04:00:00,21.0,18.3,30.40,NE,39,0.0,1.0,89,0.00,,,0.00,VWS V14.01,2013-02-22 09:00:00,
2013-02-22 04:05:00,21.0,18.3,30.40,NE,39,0.0,0.0,89,0.00,,,0.00,VWS V14.01,2013-02-22 09:05:00,
2013-02-22 04:10:00,20.9,18.2,30.40,NE,39,0.0,0.0,89,0.00,,,0.00,VWS V14.01,2013-02-22 09:10:00,
2013-02-22 04:15:00,20.9,18.2,30.40,NE,39,0.0,0.0,89,0.00,,,0.00,VWS V14.01,2013-02-22 09:15:00,
2013-02-22 04:20:00,21.0,18.3,30.40,East,91,0.0,4.0,89,0.00,,,0.00,VWS V14.01,2013-02-22 09:20:00,
2013-02-22 04:25:00,21.2,18.5,30.40,East,91,0.0,0.0,89,0.00,,,0.00,VWS V14.01,2013-02-22 09:25:00,
2013-02-22 04:30:00,21.3,18.6,30.41,East,91,0.0,1.0,89,0.00,,,0.00,VWS V14.01,2013-02-22 09:30:00,
2013-02-22 04:35:00,21.3,18.6,30.40,East,91,0.0,0.0,89,0.00,,,0.00,VWS V14.01,2013-02-22 09:35:00,
2013-02-22 04:40:00,21.3,18.6,30.41,East,91,0.0,0.0,89,0.00,,,0.00,VWS V14.01,2013-02-22 09:40:00,
2013-02-22 04:45:00,21.3,18.6,30.40,East,91,0.0,1.0,89,0.00,,,0.00,VWS V14.01,2013-02-22 09:45:00,
2013-02-22 04:50:00,21.3,18.6,30.40,East,91,0.0,2.0,89,0.00,,,0.00,VWS V14.01,2013-02-22 09:50:00,
2013-02-22 04:55:00,21.4,18.4,30.40,ENE,74,0.0,0.0,88,0.00,,,0.00,VWS V14.01,2013-02-22 09:55:00,
2013-02-22 05:00:00,21.3,18.3,30.40,ENE,74,0.0,1.0,88,0.00,,,0.00,VWS V14.01,2013-02-22 10:00:00,
2013-02-22 05:05:00,21.3,18.3,30.40,ENE,74,0.0,0.0,88,0.00,,,0.00,VWS V14.01,2013-02-22 10:05:00,
2013-02-22 05:10:00,21.1,18.1,30.40,ENE,74,0.0,0.0,88,0.00,,,0.00,VWS V14.01,2013-02-22 10:10:00,
2013-02-22 05:15:00,21.0,18.0,30.41,ENE,74,0.0,0.0,88,0.00,,,0.00,VWS V14.01,2013-02-22 10:15:00,
2013-02-22 05:20:00,20.8,18.1,30.41,ENE,75,0.0,0.0,89,0.00,,,0.00,VWS V14.01,2013-02-22 10:20:00,
2013-02-22 05:25:00,20.7,18.0,30.41,ENE,74,0.0,0.0,89,0.00,,,0.00,VWS V14.01,2013-02-22 10:25:00,
2013-02-22 05:30:00,20.5,17.8,30.42,ENE,74,0.0,0.0,89,0.00,,,0.00,VWS V14.01,2013-02-22 10:30:00,
2013-02-22 05:35:00,20.5,17.8,30.42,ENE,74,0.0,0.0,89,0.00,,,0.00,VWS V14.01,2013-02-22 10:35:00,
2013-02-22 05:40:00,20.6,17.9,30.42,ENE,74,0.0,0.0,89,0.00,,,0.00,VWS V14.01,2013-02-22 10:40:00,
2013-02-22 05:45:00,20.6,17.9,30.42,ENE,74,0.0,0.0,89,0.00,,,0.00,VWS V14.01,2013-02-22 10:45:00,
2013-02-22 05:50:00,20.6,17.9,30.43,ENE,74,0.0,0.0,89,0.00,,,0.00,VWS V14.01,2013-02-22 10:50:00,
2013-02-22 05:55:00,20.6,18.1,30.43,ENE,75,0.0,0.0,90,0.00,,,0.00,VWS V14.01,2013-02-22 10:55:00,
2013-02-22 06:00:00,20.6,17.9,30.43,ENE,74,0.0,0.0,89,0.00,,,0.00,VWS V14.01,2013-02-22 11:00:00,
2013-02-22 06:05:00,20.5,17.8,30.44,ENE,75,0.0,0.0,89,0.00,,,0.00,VWS V14.01,2013-02-22 11:05:00,
2013-02-22 06:10:00,20.4,17.9,30.44,ENE,75,0.0,0.0,90,0.00,,,0.00,VWS V14.01,2013-02-22 11:10:00,
2013-02-22 06:15:00,20.4,17.9,30.44,ENE,75,0.0,0.0,90,0.00,,,0.00,VWS V14.01,2013-02-22 11:15:00,
2013-02-22 06:20:00,20.5,18.0,30.44,ENE,75,0.0,0.0,90,0.00,,,0.00,VWS V14.01,2013-02-22 11:20:00,
2013-02-22 06:25:00,20.5,18.0,30.44,ENE,75,0.0,0.0,90,0.00,,,0.00,VWS V14.01,2013-02-22 11:25:00,
2013-02-22 06:30:00,20.5,18.0,30.45,ENE,75,0.0,0.0,90,0.00,,,0.00,VWS V14.01,2013-02-22 11:30:00,
2013-02-22 06:35:00,20.2,17.5,30.45,East,83,0.0,0.0,89,0.00,,,0.00,VWS V14.01,2013-02-22 11:35:00,
2013-02-22 06:40:00,20.2,17.7,30.45,East,83,0.0,0.0,90,0.00,,,0.00,VWS V14.01,2013-02-22 11:40:00,
2013-02-22 06:45:00,20.2,17.7,30.45,East,83,0.0,0.0,90,0.00,,,0.00,VWS V14.01,2013-02-22 11:45:00,
2013-02-22 06:50:00,20.2,17.7,30.45,East,83,0.0,0.0,90,0.00,,,0.00,VWS V14.01,2013-02-22 11:50:00,
2013-02-22 06:55:00,20.0,17.3,30.46,East,83,0.0,0.0,89,0.00,,,0.00,VWS V14.01,2013-02-22 11:55:00,
2013-02-22 07:00:00,19.7,17.0,30.46,East,83,1.0,2.0,89,0.00,,,0.00,VWS V14.01,2013-02-22 12:00:00,
2013-02-22 07:05:00,19.5,17.0,30.47,East,83,2.0,2.0,90,0.00,,,0.00,VWS V14.01,2013-02-22 12:05:00,
2013-02-22 07:10:00,19.1,16.7,30.48,SSW,201,2.0,3.0,90,0.00,,,0.00,VWS V14.01,2013-02-22 12:10:00,
2013-02-22 07:15:00,19.4,17.2,30.47,SE,141,0.0,0.0,91,0.00,,,0.00,VWS V14.01,2013-02-22 12:15:00,
2013-02-22 07:20:00,19.6,17.4,30.48,SE,141,0.0,0.0,91,0.00,,,0.00,VWS V14.01,2013-02-22 12:20:00,
2013-02-22 07:25:00,19.8,17.6,30.48,SE,141,0.0,0.0,91,0.00,,,0.00,VWS V14.01,2013-02-22 12:25:00,
2013-02-22 07:30:00,20.0,17.8,30.48,SE,141,0.0,2.0,91,0.00,,,0.00,VWS V14.01,2013-02-22 12:30:00,
2013-02-22 07:34:00,20.2,18.0,30.48,SE,141,0.0,0.0,91,0.00,,,0.00,VWS V14.01,2013-02-22 12:34:00,
2013-02-22 07:39:00,20.4,18.2,30.48,SE,141,0.0,0.0,91,0.00,,,0.00,VWS V14.01,2013-02-22 12:39:00,
2013-02-22 07:44:00,20.5,18.3,30.48,SE,141,0.0,0.0,91,0.00,,,0.00,VWS V14.01,2013-02-22 12:44:00,
2013-02-22 07:49:00,20.7,18.5,30.48,SE,141,0.0,0.0,91,0.00,,,0.00,VWS V14.01,2013-02-22 12:49:00,
2013-02-22 07:54:00,20.8,18.3,30.48,SE,141,0.0,0.0,90,0.00,,,0.00,VWS V14.01,2013-02-22 12:54:00,
2013-02-22 07:59:00,21.1,18.6,30.48,SE,141,0.0,0.0,90,0.00,,,0.00,VWS V14.01,2013-02-22 12:59:00,
2013-02-22 08:04:00,21.4,18.9,30.48,SE,141,0.0,0.0,90,0.00,,,0.00,VWS V14.01,2013-02-22 13:04:00,
2013-02-22 08:09:00,21.7,19.2,30.48,SE,141,0.0,0.0,90,0.00,,,0.00,VWS V14.01,2013-02-22 13:09:00,
2013-02-22 08:14:00,22.0,19.3,30.48,SE,141,0.0,0.0,89,0.00,,,0.00,VWS V14.01,2013-02-22 13:14:00,
2013-02-22 08:19:00,22.3,19.6,30.48,SE,141,0.0,0.0,89,0.00,,,0.00,VWS V14.01,2013-02-22 13:19:00,
2013-02-22 08:24:00,22.7,19.7,30.48,SE,141,0.0,0.0,88,0.00,,,0.00,VWS V14.01,2013-02-22 13:24:00,
2013-02-22 08:29:00,22.6,19.3,30.48,North,360,0.0,2.0,87,0.00,,,0.00,VWS V14.01,2013-02-22 13:29:00,
2013-02-22 08:34:00,22.7,19.4,30.48,North,360,0.0,2.0,87,0.00,,,0.00,VWS V14.01,2013-02-22 13:34:00,
2013-02-22 08:39:00,22.9,19.6,30.48,North,360,0.0,0.0,87,0.00,,,0.00,VWS V14.01,2013-02-22 13:39:00,
2013-02-22 08:44:00,22.8,19.2,30.48,North,360,0.0,2.0,86,0.00,,,0.00,VWS V14.01,2013-02-22 13:44:00,
2013-02-22 08:49:00,22.8,19.2,30.48,North,360,0.0,1.0,86,0.00,,,0.00,VWS V14.01,2013-02-22 13:49:00,
2013-02-22 08:54:00,22.8,19.0,30.48,North,360,0.0,1.0,85,0.00,,,0.00,VWS V14.01,2013-02-22 13:54:00,
2013-02-22 08:59:00,22.9,19.4,30.48,North,360,0.0,0.0,86,0.00,,,0.00,VWS V14.01,2013-02-22 13:59:00,
2013-02-22 09:04:00,23.0,19.5,30.48,North,360,0.0,0.0,86,0.00,,,0.00,VWS V14.01,2013-02-22 14:04:00,
2013-02-22 09:09:00,23.2,19.6,30.47,North,360,0.0,1.0,86,0.00,,,0.00,VWS V14.01,2013-02-22 14:09:00,
2013-02-22 09:14:00,23.4,19.6,30.47,North,360,0.0,2.0,85,0.00,,,0.00,VWS V14.01,2013-02-22 14:14:00,
2013-02-22 09:19:00,23.4,19.6,30.47,North,360,0.0,0.0,85,0.00,,,0.00,VWS V14.01,2013-02-22 14:19:00,
2013-02-22 09:24:00,23.6,19.8,30.47,North,360,2.0,2.0,85,0.00,,,0.00,VWS V14.01,2013-02-22 14:24:00,
2013-02-22 09:29:00,23.8,19.7,30.47,NNW,344,0.0,3.0,84,0.00,,,0.00,VWS V14.01,2013-02-22 14:29:00,
2013-02-22 09:34:00,23.9,19.8,30.47,NNW,344,2.0,3.0,84,0.00,,,0.00,VWS V14.01,2013-02-22 14:34:00,
2013-02-22 09:39:00,24.1,20.0,30.47,NW,309,1.0,3.0,84,0.00,,,0.00,VWS V14.01,2013-02-22 14:39:00,
2013-02-22 09:44:00,24.1,20.0,30.47,WNW,300,3.0,4.0,84,0.00,,,0.00,VWS V14.01,2013-02-22 14:44:00,
2013-02-22 09:49:00,24.4,20.3,30.47,WNW,300,2.0,2.0,84,0.00,,,0.00,VWS V14.01,2013-02-22 14:49:00,
2013-02-22 09:54:00,24.6,20.5,30.47,WNW,300,0.0,2.0,84,0.00,,,0.00,VWS V14.01,2013-02-22 14:54:00,
2013-02-22 09:59:00,24.9,20.5,30.47,WNW,300,0.0,1.0,83,0.00,,,0.00,VWS V14.01,2013-02-22 14:59:00,
2013-02-22 10:04:00,25.2,20.8,30.46,WNW,300,0.0,2.0,83,0.00,,,0.00,VWS V14.01,2013-02-22 15:04:00,
2013-02-22 10:09:00,25.4,20.7,30.46,NNW,340,0.0,2.0,82,0.00,,,0.00,VWS V14.01,2013-02-22 15:09:00,
2013-02-22 10:14:00,25.6,20.9,30.47,NNW,340,0.0,3.0,82,0.00,,,0.00,VWS V14.01,2013-02-22 15:14:00,
2013-02-22 10:19:00,25.7,20.7,30.47,NNW,340,0.0,2.0,81,0.00,,,0.00,VWS V14.01,2013-02-22 15:19:00,
2013-02-22 10:24:00,26.0,21.3,30.46,NNE,13,4.0,4.0,82,0.00,,,0.00,VWS V14.01,2013-02-22 15:24:00,
2013-02-22 10:29:00,26.1,20.8,30.46,North,355,0.0,4.0,80,0.00,,,0.00,VWS V14.01,2013-02-22 15:29:00,
2013-02-22 10:34:00,26.3,21.0,30.46,North,360,0.0,4.0,80,0.00,,,0.00,VWS V14.01,2013-02-22 15:34:00,
2013-02-22 10:39:00,26.6,21.3,30.45,North,360,0.0,1.0,80,0.00,,,0.00,VWS V14.01,2013-02-22 15:39:00,
2013-02-22 10:44:00,26.6,21.0,30.45,North,360,0.0,4.0,79,0.00,,,0.00,VWS V14.01,2013-02-22 15:44:00,
2013-02-22 10:49:00,26.9,21.3,30.45,North,360,0.0,3.0,79,0.00,,,0.00,VWS V14.01,2013-02-22 15:49:00,
2013-02-22 10:54:00,27.3,21.7,30.45,North,360,0.0,3.0,79,0.00,,,0.00,VWS V14.01,2013-02-22 15:54:00,
2013-02-22 10:59:00,27.8,21.9,30.44,North,360,0.0,1.0,78,0.00,,,0.00,VWS V14.01,2013-02-22 15:59:00,
2013-02-22 11:04:00,28.1,21.5,30.44,North,5,1.0,3.0,76,0.00,,,0.00,VWS V14.01,2013-02-22 16:04:00,
2013-02-22 11:09:00,28.3,21.7,30.44,North,355,1.0,4.0,76,0.00,,,0.00,VWS V14.01,2013-02-22 16:09:00,
2013-02-22 11:14:00,28.3,21.4,30.44,North,355,0.0,4.0,75,0.00,,,0.00,VWS V14.01,2013-02-22 16:14:00,
2013-02-22 11:19:00,27.9,21.0,30.44,North,355,2.0,4.0,75,0.00,,,0.00,VWS V14.01,2013-02-22 16:19:00,
2013-02-22 11:24:00,27.8,21.2,30.44,North,355,0.0,4.0,76,0.00,,,0.00,VWS V14.01,2013-02-22 16:24:00,
2013-02-22 11:29:00,27.8,21.5,30.44,North,355,0.0,3.0,77,0.00,,,0.00,VWS V14.01,2013-02-22 16:29:00,
2013-02-22 11:34:00,27.9,21.6,30.43,North,355,0.0,3.0,77,0.00,,,0.00,VWS V14.01,2013-02-22 16:34:00,
2013-02-22 11:39:00,28.2,21.6,30.43,ENE,63,0.0,4.0,76,0.00,,,0.00,VWS V14.01,2013-02-22 16:39:00,
2013-02-22 11:44:00,28.5,22.5,30.44,North,355,2.0,4.0,78,0.00,,,0.00,VWS V14.01,2013-02-22 16:44:00,
2013-02-22 11:49:00,28.6,21.7,30.43,ENE,70,0.0,4.0,75,0.00,,,0.00,VWS V14.01,2013-02-22 16:49:00,
2013-02-22 11:54:00,28.7,21.5,30.44,NNW,346,2.0,5.0,74,0.00,,,0.00,VWS V14.01,2013-02-22 16:54:00,
2013-02-22 11:59:00,28.8,21.6,30.43,NNE,33,0.0,3.0,74,0.00,,,0.00,VWS V14.01,2013-02-22 16:59:00,
2013-02-22 12:04:00,29.0,22.1,30.43,ENE,77,2.0,5.0,75,0.00,,,0.00,VWS V14.01,2013-02-22 17:04:00,
2013-02-22 12:09:00,29.2,21.3,30.43,South,186,1.0,5.0,72,0.00,,,0.00,VWS V14.01,2013-02-22 17:09:00,
2013-02-22 12:14:00,29.3,21.7,30.43,NE,40,3.0,5.0,73,0.00,,,0.00,VWS V14.01,2013-02-22 17:14:00,
2013-02-22 12:19:00,29.4,21.8,30.42,NE,54,5.0,6.0,73,0.00,,,0.00,VWS V14.01,2013-02-22 17:19:00,
2013-02-22 12:24:00,29.3,21.1,30.42,NE,45,3.0,6.0,71,0.00,,,0.00,VWS V14.01,2013-02-22 17:24:00,
2013-02-22 12:29:00,29.3,21.4,30.42,North,355,4.0,5.0,72,0.00,,,0.00,VWS V14.01,2013-02-22 17:29:00,
2013-02-22 12:34:00,29.2,21.6,30.42,North,360,0.0,5.0,73,0.00,,,0.00,VWS V14.01,2013-02-22 17:34:00,
2013-02-22 12:39:00,29.2,21.0,30.42,ENE,70,2.0,7.0,71,0.00,,,0.00,VWS V14.01,2013-02-22 17:39:00,
2013-02-22 12:44:00,29.2,21.3,30.41,ENE,59,0.0,7.0,72,0.00,,,0.00,VWS V14.01,2013-02-22 17:44:00,
2013-02-22 12:49:00,29.2,21.0,30.41,North,5,2.0,4.0,71,0.00,,,0.00,VWS V14.01,2013-02-22 17:49:00,
2013-02-22 12:54:00,29.1,21.2,30.41,NE,55,2.0,5.0,72,0.00,,,0.00,VWS V14.01,2013-02-22 17:54:00,
2013-02-22 12:59:00,29.2,21.0,30.41,NNE,17,0.0,4.0,71,0.00,,,0.00,VWS V14.01,2013-02-22 17:59:00,
2013-02-22 13:04:00,29.2,21.6,30.40,North,9,0.0,4.0,73,0.00,,,0.00,VWS V14.01,2013-02-22 18:04:00,
2013-02-22 13:09:00,29.2,21.0,30.41,NW,325,0.0,5.0,71,0.00,,,0.00,VWS V14.01,2013-02-22 18:09:00,
2013-02-22 13:14:00,29.1,21.2,30.40,NE,54,0.0,5.0,72,0.00,,,0.00,VWS V14.01,2013-02-22 18:14:00,
2013-02-22 13:19:00,29.2,22.0,30.40,ENE,66,1.0,2.0,74,0.00,,,0.00,VWS V14.01,2013-02-22 18:19:00,
2013-02-22 13:24:00,29.2,21.3,30.40,NNW,344,0.0,3.0,72,0.00,,,0.00,VWS V14.01,2013-02-22 18:24:00,
2013-02-22 13:29:00,29.3,21.7,30.40,NNW,344,0.0,1.0,73,0.01,,,0.01,VWS V14.01,2013-02-22 18:29:00,
2013-02-22 13:34:00,29.4,22.1,30.39,ENE,74,0.0,4.0,74,0.01,,,0.01,VWS V14.01,2013-02-22 18:34:00,
2013-02-22 13:39:00,29.6,21.7,30.39,NE,49,0.0,3.0,72,0.01,,,0.01,VWS V14.01,2013-02-22 18:39:00,
2013-02-22 13:44:00,29.7,22.1,30.38,North,355,0.0,3.0,73,0.01,,,0.01,VWS V14.01,2013-02-22 18:44:00,
2013-02-22 13:49:00,29.8,21.6,30.38,ESE,113,4.0,4.0,71,0.01,,,0.01,VWS V14.01,2013-02-22 18:49:00,
2013-02-22 13:54:00,29.6,21.4,30.38,ENE,67,0.0,6.0,71,0.01,,,0.01,VWS V14.01,2013-02-22 18:54:00,
2013-02-22 13:59:00,29.8,21.2,30.38,East,96,1.0,2.0,70,0.01,,,0.01,VWS V14.01,2013-02-22 18:59:00,
2013-02-22 14:04:00,30.1,22.2,30.38,WNW,296,0.0,3.0,72,0.01,,,0.01,VWS V14.01,2013-02-22 19:04:00,
2013-02-22 14:09:00,30.6,22.0,30.38,South,187,0.0,4.0,70,0.01,,,0.01,VWS V14.01,2013-02-22 19:09:00,
2013-02-22 14:14:00,30.3,21.4,30.38,WSW,244,1.0,6.0,69,0.01,,,0.01,VWS V14.01,2013-02-22 19:14:00,
2013-02-22 14:19:00,29.9,21.7,30.38,East,94,2.0,5.0,71,0.01,,,0.01,VWS V14.01,2013-02-22 19:19:00,
2013-02-22 14:24:00,29.8,21.2,30.38,SE,137,0.0,5.0,70,0.01,,,0.01,VWS V14.01,2013-02-22 19:24:00,
2013-02-22 14:29:00,29.9,21.3,30.38,SE,132,0.0,1.0,70,0.01,,,0.01,VWS V14.01,2013-02-22 19:29:00,
2013-02-22 14:34:00,30.0,21.4,30.38,NE,42,1.0,5.0,70,0.01,,,0.01,VWS V14.01,2013-02-22 19:34:00,
2013-02-22 14:39:00,29.7,21.1,30.38,ESE,120,0.0,6.0,70,0.00,,,0.01,VWS V14.01,2013-02-22 19:39:00,
2013-02-22 14:44:00,29.7,20.8,30.38,ESE,120,1.0,6.0,69,0.01,,,0.02,VWS V14.01,2013-02-22 19:44:00,
2013-02-22 14:49:00,29.7,21.1,30.38,SE,126,1.0,3.0,70,0.01,,,0.02,VWS V14.01,2013-02-22 19:49:00,
2013-02-22 14:54:00,29.7,20.8,30.38,ESE,119,0.0,3.0,69,0.01,,,0.02,VWS V14.01,2013-02-22 19:54:00,
2013-02-22 14:59:00,29.9,21.3,30.37,ENE,72,0.0,3.0,70,0.01,,,0.02,VWS V14.01,2013-02-22 19:59:00,
2013-02-22 15:04:00,29.9,21.0,30.37,ENE,62,0.0,4.0,69,0.02,,,0.03,VWS V14.01,2013-02-22 20:04:00,
2013-02-22 15:09:00,30.0,21.1,30.37,NNE,24,0.0,1.0,69,0.02,,,0.03,VWS V14.01,2013-02-22 20:09:00,
2013-02-22 15:14:00,30.1,20.8,30.38,ESE,109,1.0,5.0,68,0.02,,,0.03,VWS V14.01,2013-02-22 20:14:00,
2013-02-22 15:19:00,30.0,20.4,30.37,East,94,0.0,2.0,67,0.02,,,0.03,VWS V14.01,2013-02-22 20:19:00,
2013-02-22 15:24:00,29.9,20.6,30.37,East,94,0.0,2.0,68,0.02,,,0.03,VWS V14.01,2013-02-22 20:24:00,
2013-02-22 15:29:00,30.2,21.3,30.37,ESE,103,0.0,2.0,69,0.02,,,0.03,VWS V14.01,2013-02-22 20:29:00,
2013-02-22 15:34:00,30.5,21.2,30.37,SW,228,0.0,4.0,68,0.02,,,0.03,VWS V14.01,2013-02-22 20:34:00,
2013-02-22 15:39:00,30.5,20.9,30.36,SSE,148,4.0,5.0,67,0.02,,,0.03,VWS V14.01,2013-02-22 20:39:00,
2013-02-22 15:44:00,30.4,21.1,30.35,SW,236,0.0,5.0,68,0.02,,,0.03,VWS V14.01,2013-02-22 20:44:00,
2013-02-22 15:49:00,30.5,21.2,30.35,ESE,109,0.0,2.0,68,0.01,,,0.03,VWS V14.01,2013-02-22 20:49:00,
2013-02-22 15:54:00,30.5,20.9,30.35,North,349,0.0,2.0,67,0.01,,,0.03,VWS V14.01,2013-02-22 20:54:00,
2013-02-22 15:59:00,30.4,21.5,30.35,North,349,0.0,1.0,69,0.01,,,0.03,VWS V14.01,2013-02-22 20:59:00,
2013-02-22 16:04:00,30.4,21.1,30.35,ENE,78,0.0,1.0,68,0.02,,,0.04,VWS V14.01,2013-02-22 21:04:00,
2013-02-22 16:09:00,30.5,20.9,30.34,South,170,0.0,2.0,67,0.01,,,0.04,VWS V14.01,2013-02-22 21:09:00,
2013-02-22 16:14:00,30.3,20.7,30.34,East,94,0.0,5.0,67,0.01,,,0.04,VWS V14.01,2013-02-22 21:14:00,
2013-02-22 16:19:00,30.3,21.0,30.35,East,94,0.0,0.0,68,0.01,,,0.04,VWS V14.01,2013-02-22 21:19:00,
2013-02-22 16:24:00,30.5,21.2,30.34,East,94,0.0,0.0,68,0.01,,,0.04,VWS V14.01,2013-02-22 21:24:00,
2013-02-22 16:29:00,30.6,21.6,30.34,NW,318,0.0,2.0,69,0.01,,,0.04,VWS V14.01,2013-02-22 21:29:00,
2013-02-22 16:34:00,30.9,21.6,30.34,NNW,348,0.0,2.0,68,0.01,,,0.04,VWS V14.01,2013-02-22 21:34:00,
2013-02-22 16:39:00,31.2,22.2,30.34,NNW,348,0.0,1.0,69,0.01,,,0.04,VWS V14.01,2013-02-22 21:39:00,
2013-02-22 16:44:00,31.2,21.5,30.34,ENE,70,0.0,4.0,67,0.01,,,0.04,VWS V14.01,2013-02-22 21:44:00,
2013-02-22 16:49:00,30.9,23.0,30.34,NE,35,0.0,3.0,72,0.01,,,0.04,VWS V14.01,2013-02-22 21:49:00,
2013-02-22 16:54:00,30.6,21.6,30.34,NE,49,0.0,3.0,69,0.01,,,0.04,VWS V14.01,2013-02-22 21:54:00,
2013-02-22 16:59:00,30.4,21.5,30.34,NE,49,0.0,0.0,69,0.01,,,0.04,VWS V14.01,2013-02-22 21:59:00,
2013-02-22 17:04:00,30.2,21.6,30.34,NE,49,0.0,0.0,70,0.01,,,0.04,VWS V14.01,2013-02-22 22:04:00,
2013-02-22 17:09:00,30.0,21.1,30.34,SSE,150,1.0,5.0,69,0.00,,,0.04,VWS V14.01,2013-02-22 22:09:00,
2013-02-22 17:14:00,29.8,20.9,30.33,SSE,150,0.0,5.0,69,0.00,,,0.04,VWS V14.01,2013-02-22 22:14:00,
2013-02-22 17:19:00,29.5,20.9,30.33,SSE,150,0.0,1.0,70,0.00,,,0.04,VWS V14.01,2013-02-22 22:19:00,
2013-02-22 17:24:00,29.2,21.0,30.33,SSE,150,0.0,1.0,71,0.00,,,0.04,VWS V14.01,2013-02-22 22:24:00,
2013-02-22 17:29:00,28.8,20.9,30.33,SSE,150,0.0,1.0,72,0.00,,,0.04,VWS V14.01,2013-02-22 22:29:00,
2013-02-22 17:34:00,28.6,21.1,30.33,SSE,150,0.0,1.0,73,0.00,,,0.04,VWS V14.01,2013-02-22 22:34:00,
2013-02-22 17:39:00,28.6,20.7,30.33,ESE,105,0.0,2.0,72,0.00,,,0.04,VWS V14.01,2013-02-22 22:39:00,
2013-02-22 17:44:00,28.7,20.8,30.32,SE,126,0.0,7.0,72,0.00,,,0.04,VWS V14.01,2013-02-22 22:44:00,
2013-02-22 17:49:00,28.6,20.7,30.33,ESE,123,0.0,4.0,72,0.00,,,0.04,VWS V14.01,2013-02-22 22:49:00,
2013-02-22 17:54:00,28.7,20.8,30.33,ESE,121,0.0,4.0,72,0.00,,,0.04,VWS V14.01,2013-02-22 22:54:00,
2013-02-22 17:59:00,28.8,20.9,30.33,ESE,121,0.0,1.0,72,0.00,,,0.04,VWS V14.01,2013-02-22 22:59:00,
2013-02-22 18:04:00,28.9,21.0,30.33,ESE,122,0.0,1.0,72,0.00,,,0.04,VWS V14.01,2013-02-22 23:04:00,
2013-02-22 18:09:00,28.8,21.2,30.33,ESE,121,0.0,1.0,73,0.00,,,0.04,VWS V14.01,2013-02-22 23:09:00,
2013-02-22 18:14:00,28.9,20.7,30.33,ESE,122,0.0,1.0,71,0.00,,,0.04,VWS V14.01,2013-02-22 23:14:00,
2013-02-22 18:19:00,28.8,20.9,30.33,ESE,122,0.0,1.0,72,0.00,,,0.04,VWS V14.01,2013-02-22 23:19:00,
2013-02-22 18:24:00,28.7,21.1,30.33,ESE,122,0.0,1.0,73,0.00,,,0.04,VWS V14.01,2013-02-22 23:24:00,
2013-02-22 18:29:00,28.3,21.1,30.33,ESE,122,0.0,2.0,74,0.00,,,0.04,VWS V14.01,2013-02-22 23:29:00,
2013-02-22 18:34:00,28.3,20.8,30.34,ESE,122,0.0,2.0,73,0.00,,,0.04,VWS V14.01,2013-02-22 23:34:00,
2013-02-22 18:39:00,28.3,21.1,30.35,WSW,250,0.0,2.0,74,0.00,,,0.04,VWS V14.01,2013-02-22 23:39:00,
2013-02-22 18:44:00,28.3,21.1,30.34,WSW,250,1.0,2.0,74,0.00,,,0.04,VWS V14.01,2013-02-22 23:44:00,
2013-02-22 18:49:00,28.3,20.8,30.34,WSW,250,0.0,1.0,73,0.00,,,0.04,VWS V14.01,2013-02-22 23:49:00,
2013-02-22 18:54:00,28.4,20.9,30.33,SSE,149,0.0,4.0,73,0.00,,,0.04,VWS V14.01,2013-02-22 23:54:00,
2013-02-22 18:59:00,28.2,21.0,30.33,SSE,149,0.0,0.0,74,0.00,,,0.04,VWS V14.01,2013-02-22 23:59:00,
2013-02-22 19:04:00,28.1,20.9,30.33,SSE,149,0.0,0.0,74,0.00,,,0.04,VWS V14.01,2013-02-23 00:04:00,
2013-02-22 19:09:00,28.1,20.9,30.33,SSE,149,0.0,0.0,74,0.00,,,0.04,VWS V14.01,2013-02-23 00:09:00,
2013-02-22 19:14:00,28.1,20.9,30.33,SSE,149,0.0,0.0,74,0.00,,,0.04,VWS V14.01,2013-02-23 00:14:00,
2013-02-22 19:19:00,28.0,21.1,30.33,SSE,149,0.0,0.0,75,0.00,,,0.04,VWS V14.01,2013-02-23 00:19:00,
2013-02-22 19:24:00,27.9,21.3,30.33,SSE,149,0.0,0.0,76,0.00,,,0.04,VWS V14.01,2013-02-23 00:24:00,
2013-02-22 19:29:00,27.7,21.4,30.33,SSE,149,0.0,2.0,77,0.00,,,0.04,VWS V14.01,2013-02-23 00:29:00,
2013-02-22 19:34:00,27.7,21.1,30.32,SSE,149,0.0,2.0,76,0.00,,,0.04,VWS V14.01,2013-02-23 00:34:00,
2013-02-22 19:39:00,27.8,21.2,30.32,SE,133,2.0,4.0,76,0.00,,,0.04,VWS V14.01,2013-02-23 00:39:00,
2013-02-22 19:44:00,28.1,20.9,30.32,ESE,107,0.0,4.0,74,0.00,,,0.04,VWS V14.01,2013-02-23 00:44:00,
2013-02-22 19:49:00,28.3,20.8,30.32,ESE,107,0.0,0.0,73,0.00,,,0.04,VWS V14.01,2013-02-23 00:49:00,
2013-02-22 19:54:00,28.5,21.0,30.32,ESE,107,0.0,2.0,73,0.00,,,0.04,VWS V14.01,2013-02-23 00:54:00,
2013-02-22 19:59:00,28.3,20.8,30.32,ESE,107,0.0,0.0,73,0.00,,,0.04,VWS V14.01,2013-02-23 00:59:00,
2013-02-22 20:04:00,28.2,21.0,30.32,ESE,107,0.0,0.0,74,0.00,,,0.04,VWS V14.01,2013-02-23 01:04:00,
2013-02-22 20:09:00,28.1,21.2,30.32,ESE,107,0.0,1.0,75,0.00,,,0.04,VWS V14.01,2013-02-23 01:09:00,
2013-02-22 20:14:00,28.2,21.3,30.32,SSE,147,0.0,2.0,75,0.00,,,0.04,VWS V14.01,2013-02-23 01:14:00,
2013-02-22 20:19:00,28.2,21.0,30.32,SE,135,0.0,0.0,74,0.00,,,0.04,VWS V14.01,2013-02-23 01:19:00,
2013-02-22 20:24:00,28.1,20.9,30.32,SE,135,0.0,1.0,74,0.00,,,0.04,VWS V14.01,2013-02-23 01:24:00,
2013-02-22 20:29:00,28.2,21.0,30.31,SE,135,0.0,1.0,74,0.00,,,0.04,VWS V14.01,2013-02-23 01:29:00,
2013-02-22 20:34:00,28.3,20.8,30.31,ESE,113,1.0,4.0,73,0.00,,,0.04,VWS V14.01,2013-02-23 01:34:00,
2013-02-22 20:39:00,28.5,21.0,30.31,NW,317,3.0,3.0,73,0.00,,,0.04,VWS V14.01,2013-02-23 01:39:00,
2013-02-22 20:44:00,28.8,21.2,30.31,WSW,257,0.0,6.0,73,0.00,,,0.04,VWS V14.01,2013-02-23 01:44:00,
2013-02-22 20:49:00,28.3,21.1,30.31,WSW,257,0.0,0.0,74,0.00,,,0.04,VWS V14.01,2013-02-23 01:49:00,
2013-02-22 20:54:00,28.3,20.8,30.30,SW,227,0.0,4.0,73,0.00,,,0.04,VWS V14.01,2013-02-23 01:54:00,
2013-02-22 20:59:00,28.4,21.2,30.30,WSW,238,3.0,4.0,74,0.00,,,0.04,VWS V14.01,2013-02-23 01:59:00,
2013-02-22 21:04:00,28.4,21.5,30.31,WSW,238,0.0,4.0,75,0.00,,,0.04,VWS V14.01,2013-02-23 02:04:00,
2013-02-22 21:09:00,28.6,21.1,30.31,WSW,238,0.0,2.0,73,0.00,,,0.04,VWS V14.01,2013-02-23 02:09:00,
2013-02-22 21:14:00,28.8,21.6,30.30,SSW,205,2.0,9.0,74,0.00,,,0.04,VWS V14.01,2013-02-23 02:14:00,
2013-02-22 21:19:00,29.0,21.8,30.30,NW,316,0.0,2.0,74,0.00,,,0.04,VWS V14.01,2013-02-23 02:19:00,
2013-02-22 21:24:00,28.8,20.9,30.31,WNW,296,0.0,3.0,72,0.00,,,0.04,VWS V14.01,2013-02-23 02:24:00,
2013-02-22 21:29:00,28.7,20.8,30.31,NW,315,0.0,5.0,72,0.00,,,0.04,VWS V14.01,2013-02-23 02:29:00,
2013-02-22 21:34:00,28.8,20.6,30.30,East,93,2.0,5.0,71,0.00,,,0.04,VWS V14.01,2013-02-23 02:34:00,
2013-02-22 21:39:00,29.0,20.8,30.30,North,355,0.0,4.0,71,0.00,,,0.04,VWS V14.01,2013-02-23 02:39:00,
2013-02-22 21:44:00,28.8,20.9,30.30,NNW,344,0.0,4.0,72,0.00,,,0.04,VWS V14.01,2013-02-23 02:44:00,
2013-02-22 21:49:00,28.4,20.9,30.31,NNW,344,0.0,1.0,73,0.00,,,0.04,VWS V14.01,2013-02-23 02:49:00,
2013-02-22 21:54:00,28.1,20.9,30.31,NNW,344,0.0,1.0,74,0.00,,,0.04,VWS V14.01,2013-02-23 02:54:00,
2013-02-22 21:59:00,28.0,21.1,30.30,NNW,344,0.0,0.0,75,0.00,,,0.04,VWS V14.01,2013-02-23 02:59:00,
2013-02-22 22:04:00,28.1,20.9,30.30,NNW,344,0.0,1.0,74,0.00,,,0.04,VWS V14.01,2013-02-23 03:04:00,
2013-02-22 22:09:00,28.2,20.7,30.30,NNW,344,0.0,0.0,73,0.00,,,0.04,VWS V14.01,2013-02-23 03:09:00,
2013-02-22 22:14:00,28.4,20.5,30.29,NNW,344,0.0,0.0,72,0.00,,,0.04,VWS V14.01,2013-02-23 03:14:00,
2013-02-22 22:19:00,28.7,20.5,30.29,East,95,0.0,4.0,71,0.00,,,0.04,VWS V14.01,2013-02-23 03:19:00,
2013-02-22 22:24:00,29.1,20.5,30.29,South,175,0.0,6.0,70,0.00,,,0.04,VWS V14.01,2013-02-23 03:24:00,
2013-02-22 22:29:00,29.3,20.7,30.29,WNW,298,0.0,6.0,70,0.00,,,0.04,VWS V14.01,2013-02-23 03:29:00,
2013-02-22 22:34:00,29.4,20.8,30.29,SW,215,0.0,6.0,70,0.00,,,0.04,VWS V14.01,2013-02-23 03:34:00,
2013-02-22 22:39:00,29.3,20.7,30.29,NNE,17,0.0,2.0,70,0.00,,,0.04,VWS V14.01,2013-02-23 03:39:00,
2013-02-22 22:44:00,29.3,20.4,30.29,SW,225,3.0,8.0,69,0.00,,,0.04,VWS V14.01,2013-02-23 03:44:00,
2013-02-22 22:49:00,29.5,20.6,30.29,South,190,9.0,9.0,69,0.00,,,0.04,VWS V14.01,2013-02-23 03:49:00,
2013-02-22 22:54:00,29.7,20.5,30.29,SSE,160,2.0,9.0,68,0.00,,,0.04,VWS V14.01,2013-02-23 03:54:00,
2013-02-22 22:59:00,29.8,20.5,30.29,South,184,2.0,4.0,68,0.00,,,0.04,VWS V14.01,2013-02-23 03:59:00,
2013-02-22 23:04:00,29.7,21.5,30.29,South,176,0.0,4.0,71,0.00,,,0.04,VWS V14.01,2013-02-23 04:04:00,
2013-02-22 23:09:00,29.6,21.0,30.29,South,175,2.0,4.0,70,0.00,,,0.04,VWS V14.01,2013-02-23 04:09:00,
2013-02-22 23:14:00,29.6,21.0,30.29,SE,133,0.0,5.0,70,0.00,,,0.04,VWS V14.01,2013-02-23 04:14:00,
2013-02-22 23:19:00,29.6,20.7,30.29,SW,215,3.0,5.0,69,0.00,,,0.04,VWS V14.01,2013-02-23 04:19:00,
2013-02-22 23:24:00,29.8,20.9,30.28,East,101,0.0,5.0,69,0.00,,,0.04,VWS V14.01,2013-02-23 04:24:00,
2013-02-22 23:29:00,29.7,20.8,30.28,SE,134,0.0,5.0,69,0.00,,,0.04,VWS V14.01,2013-02-23 04:29:00,
2013-02-22 23:34:00,29.4,21.2,30.27,SW,223,1.0,5.0,71,0.00,,,0.04,VWS V14.01,2013-02-23 04:34:00,
2013-02-22 23:39:00,29.4,20.8,30.28,SSW,212,0.0,0.0,70,0.00,,,0.04,VWS V14.01,2013-02-23 04:39:00,
2013-02-22 23:44:00,29.4,20.5,30.28,WSW,248,2.0,5.0,69,0.00,,,0.04,VWS V14.01,2013-02-23 04:44:00,
2013-02-22 23:49:00,29.6,20.7,30.28,SSE,160,0.0,7.0,69,0.00,,,0.04,VWS V14.01,2013-02-23 04:49:00,
2013-02-22 23:54:00,29.5,20.6,30.28,SSE,161,1.0,7.0,69,0.00,,,0.04,VWS V14.01,2013-02-23 04:54:00,
2013-02-22 23:59:00,29.5,20.6,30.28,WSW,240,2.0,12.0,69,0.00,,,0.04,VWS V14.01,2013-02-23 04:59:00,